Regional Weather Roundup
Issued by NWS Jackson, KY

Home | Current Version | Previous Version | Graphics & Text | Print | Product List | Glossary On
Versions: 1 2 3 4 5 6 7 8 9 10 11 12 13 14 15 16 17 18 19 20 21 22 23 24 25 26 27 28 29 30 31 32 33 34 35 36 37 38 39 40 41 42 43 44 45 46 47 48 49 50
000
ASUS43 KJKL 311505
RWRJKL

EAST KENTUCKY HOURLY WEATHER ROUNDUP
NATIONAL WEATHER SERVICE JACKSON KY
1000 AM EST SAT JAN 31 2015

NOTE: "FAIR" INDICATES FEW OR NO CLOUDS BELOW 12,000 FEET WITH
NO SIGNIFICANT WEATHER AND/OR OBSTRUCTIONS TO VISIBILITY.

* THESE REPORTS ARE NOT UNDER NWS QUALITY CONTROL AND MAY NOT
  REPORT WEATHER SUCH AS PRECIPITATION AND FOG.

KYZ079-080-083-085-087-088-110-112-115-119-120-311600
...EASTERN KENTUCKY...

CITY           SKY/WX    TMP DP  RH WIND       PRES   REMARKS
JACKSON        SUNNY     25  17  72 SW3       30.38R
LONDON         PTSUNNY   27  18  69 CALM      30.39R
SOMERSET*      SUNNY     28  21  74 CALM      30.42S
MONTICELLO*    MOSUNNY   32  20  61 CALM      30.42S
MIDDLESBORO*   MOSUNNY   26  19  74 CALM      30.41S
HARLAN APT*    SUNNY     28  19  69 CALM      30.38S
BLACK MTN*       N/A     27   0  31 N3          N/A
PIKEVILLE APT* SUNNY     25  18  74 CALM      30.37S
BIG SANDY*     SUNNY     26  18  69 S5        30.39S WCI  21
MOREHEAD APT*  SUNNY     27  16  63 CALM      30.42R
$$

KYZ035-036-041-042-044-050-067-078-099-311600
...CENTRAL KENTUCKY...

CITY           SKY/WX    TMP DP  RH WIND       PRES   REMARKS
MT STERLING*   SUNNY     28  19  69 SW5       30.40S WCI  23
FLEMING/MASON* SUNNY     26  18  70 S7        30.41R WCI  19
DANVILLE*      SUNNY     28  19  69 S7        30.41R WCI  21
RICHMOND*      SUNNY     30  19  64 CALM      30.39R
LEXINGTON      SUNNY     28  20  71 S5        30.39R WCI  23
FRANKFORT      SUNNY     27  20  75 CALM      30.39R
$$

KYZ091>093-OHZ055-061-077-WVZ005-015-034-035-042-311600
...SOUTHERN OHIO/WEST VIRGINIA...

CITY           SKY/WX    TMP DP  RH WIND       PRES   REMARKS
COVINGTON      PTSUNNY   27  17  66 S8        30.37S WCI  19
COLUMBUS       MOSUNNY   20  13  74 SW3       30.38S
DAYTON         PTSUNNY   26  18  71 SW12      30.35R WCI  16
WILMINGTON     SUNNY     25  17  72 S10       30.36R WCI  15
HUNTINGTON     SUNNY     23  17  78 S5        30.41R WCI  17
CHARLESTON     MOSUNNY   22  16  78 CALM      30.41R
PINEVILLE*     SUNNY     25  19  80 MISG      30.41R
BECKLEY        SUNNY     18  10  71 SW6       30.30R WCI  10
BLUEFIELD      SUNNY     22  11  62 W7        30.28R WCI  13
$$

VAZ002-007-008-TNZ017-027-036-066-071-311600
...SOUTHWEST VIRGINIA/EAST TENNESSEE...

CITY           SKY/WX    TMP DP  RH WIND       PRES   REMARKS
WISE*          SUNNY     28  12  50 W5        30.31F WCI  23
JONESVILLE*    SUNNY     27  18  69 CALM      30.41S
ABINGDON*      SUNNY     30  16  55 SW6       30.35R WCI  24
BRISTOL        PTSUNNY   27  20  75 CALM      30.39R
KNOXVILLE      CLOUDY    30  20  66 NE6       30.40R WCI  24
OAK RIDGE      PTSUNNY   30  21  69 CALM      30.42R
CROSSVILLE     CLOUDY    27  21  78 CALM      30.35S
NASHVILLE      CLOUDY    32  25  75 S3        30.41R
$$

...KEY TO REMARKS...
VSB - VISIBILITY IN MILES
WCI - WIND CHILL INDEX
HX  - HEAT INDEX

$$



USA.gov is the U.S. government's official web portal to all federal, state and local government web resources and services.